Powrót do katalogu

STARLINK-5309

AktywnyŁącznośćVLEO
NORAD 55310·PAYLOAD·🇺🇸 United States

Wystrzelony Jan 19, 2023 z Vandenberg Space Force Base

Loading…

Następne Przeloty (najbliższe 24 godziny)

TLE

ŚwieżeSource: CelesTrak SupGP

Epoka: Sep 14, 2026, 21:37 UTC

1 55310C 23010AT  26257.90118056  .00733700  00000+0  60087-1 0  2570
2 55310  70.0005 247.4649 0003075 268.3962  42.0805 14.98850410    15

Śledź STARLINK-5309 w czasie rzeczywistym z AllMySat

Download on the App Store